Ely, MN

12:51 PM CDT on July 25, 2017 (GMT -0500)
Ely Municipal

Weather History for KELO - January, 2013

Change the Weather History Date:

Friday, January 18, 2013

  Actual Average Record
Temperature  
Mean Temperature 0 °F -  
Max Temperature 17 °F 14 °F 39 °F (2017)
Min Temperature -18 °F -1 °F -25 °F (2016)
Degree Days  
Heating Degree Days 66    
Moisture  
Dew Point 5 °F    
Average Humidity 87    
Maximum Humidity 100    
Minimum Humidity 76    
Precipitation  
Precipitation 0.05 in - - ()
Sea Level Pressure  
Sea Level Pressure 29.85 in    
Wind  
Wind Speed 1 mph (ESE)    
Max Wind Speed 8 mph    
Max Gust Speed -    
Visibility 6 miles    
Events Snow    
Averages and records for this station are not official NWS values.
T = Trace of Precipitation, MM = Missing Value Source: NWS Daily Summary

Daily Weather History Graph

Daily Weather History Graph

Search for Another Location

Airport or City:

Trip Planner

Search our weather history database for the weather conditions in past years. The results will help you decide how hot, cold, wet, or windy it might be!

Date:

Astronomy

Jan. 18, 2013 Rise Set
Actual Time 7:49 AM CST 4:47 PM CST
Civil Twilight 7:14 AM CST 5:21 PM CST
Nautical Twilight 6:36 AM CST 5:59 PM CST
Astronomical Twilight 5:59 AM CST 6:36 PM CST
Moon 10:51 AM CST (1/18) 12:12 AM CST (1/18)
Length of Visible Light 10h 07m
Length of Day
8h 57m
Waxing Crescent, 47% of the Moon is Illuminated
Jan 18
Waxing Crescent
Jan 18
First Quarter
Jan 26
Full
Feb 3
Last Quarter
Feb 10
New

Hourly Weather History & Observations

Time (CST) Temp. Windchill Dew Point Humidity Pressure Visibility Wind Dir Wind Speed Gust Speed Precip Events Conditions
12:13 AM -16.6 °F - -22.0 °F 76% 30.18 in 10.0 mi Calm Calm - N/A   Clear
12:33 AM -16.6 °F - -20.2 °F 84% 30.17 in 10.0 mi Calm Calm - N/A   Clear
12:53 AM -18.4 °F - -23.8 °F 76% 30.17 in 10.0 mi Calm Calm - N/A   Clear
1:13 AM -16.6 °F - -20.2 °F 84% 30.17 in 10.0 mi Calm Calm - N/A   Clear
1:33 AM -14.8 °F - -18.4 °F 84% 30.16 in 10.0 mi Calm Calm - N/A   Scattered Clouds
1:53 AM -14.8 °F - -18.4 °F 84% 30.15 in 10.0 mi Calm Calm - N/A   Scattered Clouds
2:13 AM -11.2 °F - -16.6 °F 77% 30.13 in 10.0 mi Calm Calm - N/A   Scattered Clouds
2:33 AM -9.4 °F - -14.8 °F 77% 30.13 in 10.0 mi Calm Calm - N/A   Mostly Cloudy
2:53 AM -7.6 °F - -11.2 °F 84% 30.12 in 10.0 mi Calm Calm - N/A   Overcast
3:13 AM -7.6 °F - -13.0 °F 77% 30.11 in 10.0 mi Calm Calm - N/A   Overcast
3:32 AM -7.6 °F - -11.2 °F 84% 30.10 in 10.0 mi Calm Calm - N/A   Overcast
3:53 AM -5.8 °F - -9.4 °F 84% 30.09 in 10.0 mi Calm Calm - N/A   Overcast
4:13 AM -2.2 °F -10.4 °F -7.6 °F 78% 30.07 in 10.0 mi SE 3.5 mph - N/A   Overcast
4:32 AM -2.2 °F - -7.6 °F 78% 30.06 in 10.0 mi Calm Calm - N/A   Overcast
4:53 AM -2.2 °F -10.4 °F -5.8 °F 85% 30.05 in 4.0 mi SE 3.5 mph - N/A Snow Light Snow
5:13 AM -2.2 °F -10.4 °F -5.8 °F 85% 30.03 in 2.0 mi East 3.5 mph - N/A Snow Light Snow
5:32 AM -2.2 °F -10.4 °F -5.8 °F 85% 30.00 in 1.8 mi East 3.5 mph - N/A Snow Light Snow
5:53 AM -0.4 °F - -5.8 °F 78% 29.98 in 1.5 mi Calm Calm - N/A Snow Light Snow
6:13 AM -0.4 °F - -4.0 °F 85% 29.97 in 1.8 mi Calm Calm - 0.01 in Snow Light Snow
6:32 AM -0.4 °F - -2.2 °F 92% 29.96 in 1.2 mi Calm Calm - 0.01 in Snow Light Snow
6:53 AM -0.4 °F - -2.2 °F 92% 29.94 in 1.5 mi Calm Calm - 0.01 in Snow Light Snow
7:09 AM 1.4 °F - -2.2 °F 85% 29.94 in 1.2 mi Calm Calm - N/A Snow Light Snow
7:33 AM 1.4 °F - -2.2 °F 85% 29.92 in 1.8 mi Calm Calm - N/A Snow Light Snow
7:53 AM 1.4 °F - -0.4 °F 92% 29.91 in 2.0 mi Calm Calm - N/A Snow Light Snow
8:13 AM 3.2 °F - -0.4 °F 85% 29.91 in 4.0 mi Calm Calm - N/A Snow Light Snow
8:33 AM 3.2 °F - 1.4 °F 92% 29.90 in 5.0 mi Calm Calm - N/A Snow Light Snow
8:53 AM 5.0 °F - 1.4 °F 85% 29.90 in 3.0 mi Calm Calm - N/A Snow Light Snow
9:13 AM 6.8 °F -0.1 °F 3.2 °F 85% 29.88 in 2.0 mi ESE 3.5 mph - N/A Snow Light Snow
9:33 AM 6.8 °F - 3.2 °F 85% 29.87 in 1.5 mi Calm Calm - N/A Snow Light Snow
9:53 AM 8.6 °F - 5.0 °F 85% 29.86 in 2.5 mi Calm Calm - N/A Snow Light Snow
10:13 AM 10.4 °F 4.0 °F 6.8 °F 85% 29.85 in 3.0 mi SE 3.5 mph - N/A Snow Light Snow
10:21 AM 10.4 °F 2.2 °F 6.8 °F 85% 29.85 in 4.0 mi ESE 4.6 mph - N/A   Overcast
10:39 AM 12.2 °F 6.1 °F 8.6 °F 85% 29.84 in 7.0 mi ESE 3.5 mph - N/A Snow Light Snow
10:52 AM 12.2 °F 0.7 °F 8.6 °F 85% 29.83 in 10.0 mi SE 8.1 mph - N/A   Overcast
11:13 AM 12.2 °F 1.7 °F 8.6 °F 85% 29.82 in 7.0 mi SE 6.9 mph - N/A Snow Light Snow
11:32 AM 12.2 °F 1.7 °F 8.6 °F 85% 29.80 in 7.0 mi ESE 6.9 mph - N/A Snow Light Snow
11:53 AM 14.0 °F 3.9 °F 8.6 °F 79% 29.78 in 5.0 mi SE 6.9 mph - N/A Snow Light Snow
12:13 PM 15.8 °F 6.1 °F 10.4 °F 79% 29.76 in 5.0 mi SE 6.9 mph - N/A Snow Light Snow
12:32 PM 15.8 °F 7.2 °F 10.4 °F 79% 29.75 in 3.0 mi SE 5.8 mph - N/A Snow Light Snow
12:53 PM 15.8 °F 6.1 °F 12.2 °F 86% 29.74 in 1.2 mi SSE 6.9 mph - N/A Snow Light Snow
1:13 PM 15.8 °F 7.2 °F 12.2 °F 86% 29.72 in 4.0 mi SE 5.8 mph - N/A Snow Light Snow
1:32 PM 15.8 °F 8.6 °F 12.2 °F 86% 29.72 in 10.0 mi SE 4.6 mph - N/A Snow Light Snow
1:53 PM 17.6 °F 10.7 °F 12.2 °F 79% 29.71 in 1.8 mi ESE 4.6 mph - N/A Snow Light Snow
2:13 PM 17.6 °F 10.7 °F 14.0 °F 86% 29.70 in 1.0 mi SE 4.6 mph - N/A Snow Light Snow
2:32 PM 17.6 °F 12.3 °F 14.0 °F 86% 29.71 in 1.5 mi ESE 3.5 mph - N/A Snow Light Snow
2:53 PM 17.6 °F - 15.8 °F 93% 29.71 in 0.8 mi Calm Calm - N/A Snow Light Snow
3:13 PM 17.6 °F - 15.8 °F 93% 29.71 in 0.8 mi Calm Calm - 0.01 in Snow Light Snow
3:33 PM 17.6 °F - 15.8 °F 93% 29.71 in 1.8 mi Calm Calm - 0.02 in Snow Light Snow
3:53 PM 17.6 °F - 15.8 °F 93% 29.70 in 4.0 mi Calm Calm - 0.02 in Snow Light Snow
4:13 PM 17.6 °F 12.3 °F 15.8 °F 93% 29.69 in 10.0 mi East 3.5 mph - N/A   Overcast
4:33 PM 17.6 °F 12.3 °F 15.8 °F 93% 29.69 in 10.0 mi East 3.5 mph - N/A   Overcast
4:53 PM 17.6 °F - 15.8 °F 93% 29.70 in 10.0 mi Calm Calm - N/A Snow Light Snow
5:13 PM 17.6 °F - 15.8 °F 93% 29.71 in 5.0 mi Calm Calm - N/A Snow Light Snow
5:33 PM 17.6 °F - 15.8 °F 93% 29.72 in 10.0 mi Calm Calm - N/A   Overcast
5:53 PM 17.6 °F - 15.8 °F 93% 29.73 in 3.0 mi Calm Calm - N/A Snow Light Snow
6:13 PM 17.6 °F - 15.8 °F 93% 29.72 in 4.0 mi Calm Calm - N/A Snow Light Snow
6:33 PM 17.6 °F - 15.8 °F 93% 29.73 in 2.0 mi Calm Calm - N/A Snow Light Snow
6:53 PM 17.6 °F - 15.8 °F 93% 29.73 in 2.0 mi Calm Calm - N/A Snow Light Snow
7:13 PM 17.6 °F - 15.8 °F 93% 29.73 in 10.0 mi Calm Calm - N/A Snow Light Snow
7:33 PM 17.6 °F - 15.8 °F 93% 29.74 in 10.0 mi Calm Calm - N/A   Overcast
7:53 PM 17.6 °F - 15.8 °F 93% 29.73 in 10.0 mi Calm Calm - 0.01 in   Overcast
8:13 PM 15.8 °F - 15.8 °F 100% 29.74 in 10.0 mi Calm Calm - N/A   Overcast
8:33 PM 15.8 °F 10.2 °F 14.0 °F 93% 29.72 in 10.0 mi East 3.5 mph - N/A   Overcast
8:53 PM 15.8 °F 8.6 °F 14.0 °F 93% 29.71 in 7.0 mi East 4.6 mph - N/A Snow Light Snow
9:13 PM 15.8 °F - 14.0 °F 93% 29.71 in 7.0 mi Calm Calm - N/A Snow Light Snow
9:33 PM 15.8 °F - 14.0 °F 93% 29.70 in 7.0 mi Calm Calm - N/A Snow Light Snow
9:53 PM 15.8 °F - 14.0 °F 93% 29.71 in 4.0 mi Calm Calm - N/A Snow Light Snow
10:13 PM 15.8 °F 10.2 °F 14.0 °F 93% 29.70 in 3.0 mi East 3.5 mph - N/A Snow Light Snow
10:33 PM 15.8 °F - 14.0 °F 93% 29.71 in 7.0 mi Calm Calm - N/A Snow Light Snow
10:53 PM 15.8 °F - 14.0 °F 93% 29.71 in 5.0 mi Calm Calm - N/A Snow Light Snow
11:12 PM 15.8 °F - 14.0 °F 93% 29.70 in 7.0 mi Calm Calm - 0.01 in Snow Light Snow
11:33 PM 15.8 °F - 14.0 °F 93% 29.70 in 10.0 mi Calm Calm - 0.01 in Snow Light Snow
11:53 PM 15.8 °F - 14.0 °F 93% 29.69 in 10.0 mi Calm Calm - 0.01 in   Overcast